DW8424 Weather Reports


time (UTC)temp
C
wind
direction
speed
KPH
gust
KPH
rain 1hr
cm
rain 24hr
cm
rain mn
cm
humidity
%
barometer
mb
20260502151532 15 97 1.6 6.4 0.00 0.00 0.00 77 1014.2
20260502123015 18 264 1.6 12.9 0.00 0.00 0.00 62 1014.8
20260502121516 18 239 3.2 14.5 0.00 0.00 0.00 62 1015.1
20260502114509 18 266 3.2 12.9 0.00 0.00 0.00 67 1014.8
20260502113012 17 235 4.8 17.7 0.00 0.00 0.00 68 1015.0
20260502111504 17 193 4.8 12.9 0.00 0.00 0.00 68 1015.2
20260502110003 17 334 4.8 14.5 0.00 0.00 0.00 71 1015.2
20260502104501 17 138 3.2 14.5 0.00 0.00 0.00 72 1015.1
20260502103106 16 205 4.8 14.5 0.00 0.00 0.00 71 1015.2
20260502101620 16 158 6.4 17.7 0.00 0.00 0.00 74 1015.4
20260502071526 12 267 1.6 8.0 0.00 0.00 0.00 82 1015.4
20260502070025 11 274 1.6 4.8 0.00 0.00 0.00 85 1015.6
20260502064529 11 242 1.6 6.4 0.00 0.00 0.00 84 1015.6
20260502063023 11 285 0.0 6.4 0.00 0.00 0.00 85 1015.4
20260502061522 11 205 1.6 8.0 0.00 0.00 0.00 85 1015.5
20260502060023 11 269 1.6 11.3 0.00 0.00 0.00 85 1015.5
20260502054522 11 260 0.0 8.0 0.00 0.00 0.00 85 1015.4
20260502053020 10 229 0.0 6.4 0.00 0.00 0.00 85 1015.5
20260502051520 11 193 1.6 6.4 0.00 0.00 0.00 85 1015.6
20260502050018 11 173 1.6 9.7 0.00 0.00 0.00 85 1015.5
20260502044517 11 158 1.6 6.4 0.00 0.00 0.00 86 1015.5
20260502043017 11 193 1.6 8.0 0.00 0.00 0.00 86 1015.4
20260502041513 11 250 0.0 9.7 0.00 0.00 0.00 86 1015.5
20260502040013 11 194 3.2 9.7 0.00 0.00 0.00 86 1015.5
20260502034511 11 303 1.6 6.4 0.00 0.00 0.00 87 1015.6
20260502033008 11 225 0.0 3.2 0.00 0.00 0.00 87 1015.8
20260502031507 11 273 0.0 1.6 0.00 0.00 0.00 87 1015.8
20260502030009 11 22 0.0 0.0 0.00 0.00 0.00 86 1015.8
20260502024504 11 22 0.0 0.0 0.00 0.00 0.00 86 1015.9
20260502023007 11 22 0.0 0.0 0.00 0.00 0.00 86 1015.9
20260502021604 11 22 0.0 0.0 0.00 0.00 0.00 86 1016.1
20260502020058 11 22 0.0 0.0 0.00 0.00 0.00 85 1016.2
20260502014558 11 22 0.0 1.6 0.00 0.00 0.00 85 1016.2
20260502013059 11 22 0.0 0.0 0.00 0.00 0.00 85 1016.4
20260502011609 11 22 0.0 0.0 0.00 0.00 0.00 84 1016.4
20260502010054 12 24 0.0 1.6 0.00 0.00 0.00 83 1016.6
20260502004601 11 22 0.0 1.6 0.00 0.00 0.00 84 1016.7
20260502003049 11 20 0.0 1.6 0.00 0.00 0.00 84 1016.8
20260502001549 11 20 0.0 1.6 0.00 0.00 0.00 83 1016.8
20260502000106 12 20 0.0 1.6 0.00 0.00 0.00 82 1016.8
20260501234546 11 302 0.0 0.0 0.00 0.00 0.00 84 1016.9
20260501233044 11 299 0.0 0.0 0.00 0.00 0.00 83 1017.0
20260501231551 11 13 0.0 1.6 0.00 0.00 0.00 82 1017.1
20260501230039 12 15 0.0 0.0 0.00 0.00 0.00 80 1017.1
20260501224538 12 15 0.0 0.0 0.00 0.00 0.00 81 1017.1
20260501223037 12 18 0.0 4.8 0.00 0.00 0.00 79 1017.0
20260501221552 12 219 0.0 1.6 0.00 0.00 0.00 80 1016.8
20260501220043 12 255 0.0 1.6 0.00 0.00 0.00 78 1017.0
20260501214536 13 238 0.0 1.6 0.00 0.00 0.00 75 1016.8
20260501213039 13 242 0.0 0.0 0.00 0.00 0.00 74 1016.8
20260501211534 13 242 0.0 3.2 0.00 0.00 0.00 75 1016.7
20260501210033 12 232 0.0 0.0 0.00 0.00 0.00 78 1016.9
20260501204533 12 232 0.0 1.6 0.00 0.00 0.00 79 1017.0
20260501203031 12 115 0.0 0.0 0.00 0.00 0.00 75 1016.9
20260501201531 13 115 0.0 0.0 0.00 0.00 0.00 74 1017.0
20260501200030 13 115 0.0 1.6 0.00 0.00 0.00 73 1017.1
20260501194530 13 115 0.0 1.6 0.00 0.00 0.00 73 1017.1
20260501193035 13 91 0.0 1.6 0.00 0.00 0.00 73 1017.1
20260501191533 13 65 0.0 1.6 0.00 0.00 0.00 73 1017.2
20260501190048 14 60 0.0 3.2 0.00 0.00 0.00 70 1017.2
20260501184534 15 156 0.0 4.8 0.00 0.00 0.00 68 1017.3
20260501183025 15 84 0.0 3.2 0.00 0.00 0.00 66 1017.4
20260501181524 16 89 0.0 3.2 0.00 0.00 0.00 64 1017.4
20260501180024 17 44 0.0 4.8 0.00 0.00 0.00 63 1017.5
20260501174526 18 51 0.0 3.2 0.00 0.00 0.00 60 1017.7
20260501173024 18 61 3.2 9.7 0.00 0.00 0.00 56 1017.7
20260501171518 17 84 0.0 9.7 0.00 0.00 0.00 58 1017.7
20260501170019 16 103 1.6 6.4 0.00 0.00 0.00 66 1017.7
20260501164527 16 120 1.6 4.8 0.00 0.00 0.00 68 1017.7
20260501163017 15 91 3.2 6.4 0.00 0.00 0.00 67 1017.8
20260501161514 15 20 0.0 6.4 0.00 0.00 0.00 69 1017.8